Wetterdaten: Dienstag, 26.01.2016
Datum Zeit Auen-Temp. Temp gefhlt Luftfeuchte Luftdruck Regen Wind Richtung Richtung Taupunkt Windben
26.01.2016 00:00 1,1 C 0,8 C 89 % 1033,4 hPa 0,0 mm 0,0 km/h (0 Bft) O 90 -0,5 C 0,0 km/h (0 Bft)
26.01.2016 00:05 1,4 C 1,0 C 89 % 1033,5 hPa 0,0 mm 0,0 km/h (0 Bft) O-NO 67 -0,2 C 0,0 km/h (0 Bft)
26.01.2016 00:10 1,2 C 0,9 C 89 % 1033,5 hPa 0,0 mm 0,0 km/h (0 Bft) O-SO 112 -0,4 C 0,0 km/h (0 Bft)
26.01.2016 00:15 1,0 C 0,7 C 89 % 1033,5 hPa 0,0 mm 0,0 km/h (0 Bft) N 360 -0,6 C 2,6 km/h (1 Bft)
26.01.2016 00:20 1,0 C 0,7 C 89 % 1033,5 hPa 0,0 mm 0,3 km/h (0 Bft) O 90 -0,6 C 2,6 km/h (1 Bft)
26.01.2016 00:25 1,2 C 0,8 C 89 % 1033,3 hPa 0,0 mm 0,3 km/h (0 Bft) SO 135 -0,4 C 3,4 km/h (1 Bft)
26.01.2016 00:30 1,7 C 1,2 C 90 % 1033,3 hPa 0,0 mm 1,6 km/h (1 Bft) W 270 0,2 C 9,1 km/h (2 Bft)
26.01.2016 00:35 1,6 C 1,2 C 90 % 1033,3 hPa 0,0 mm 2,1 km/h (1 Bft) SO 135 0,1 C 10,1 km/h (2 Bft)
26.01.2016 00:40 1,5 C 1,2 C 90 % 1033,3 hPa 0,0 mm 1,3 km/h (1 Bft) O-NO 67 0,0 C 0,0 km/h (0 Bft)
26.01.2016 00:45 1,3 C 1,0 C 90 % 1033,3 hPa 0,0 mm 0,8 km/h (0 Bft) O-NO 67 -0,2 C 2,6 km/h (1 Bft)
26.01.2016 00:50 1,6 C 1,2 C 90 % 1033,3 hPa 0,0 mm 1,8 km/h (1 Bft) S-SW 202 0,1 C 6,0 km/h (2 Bft)
26.01.2016 00:55 1,7 C 1,3 C 89 % 1033,3 hPa 0,0 mm 2,8 km/h (1 Bft) S-SO 157 0,1 C 6,7 km/h (2 Bft)
26.01.2016 01:00 1,5 C 1,3 C 89 % 1033,3 hPa 0,0 mm 2,3 km/h (1 Bft) O 90 -0,1 C 0,0 km/h (0 Bft)
26.01.2016 01:05 1,2 C 1,0 C 89 % 1033,1 hPa 0,0 mm 0,8 km/h (0 Bft) O-NO 67 -0,4 C 14,5 km/h (3 Bft)
26.01.2016 01:10 1,2 C 1,0 C 89 % 1033,1 hPa 0,0 mm 0,3 km/h (0 Bft) O-SO 112 -0,4 C 0,0 km/h (0 Bft)
26.01.2016 01:15 1,4 C 1,1 C 89 % 1033,1 hPa 0,0 mm 0,8 km/h (0 Bft) N-NO 22 -0,2 C 0,0 km/h (0 Bft)
26.01.2016 01:20 1,5 C 1,2 C 89 % 1033,1 hPa 0,0 mm 1,0 km/h (0 Bft) O-NO 67 -0,1 C 0,0 km/h (0 Bft)
26.01.2016 01:25 1,2 C 1,0 C 89 % 1033,0 hPa 0,0 mm 0,5 km/h (0 Bft) O-NO 67 -0,4 C 0,0 km/h (0 Bft)
26.01.2016 01:30 1,1 C 0,8 C 89 % 1033,0 hPa 0,0 mm 0,3 km/h (0 Bft) O-NO 67 -0,5 C 0,0 km/h (0 Bft)
26.01.2016 01:35 1,2 C 0,8 C 89 % 1033,0 hPa 0,0 mm 0,0 km/h (0 Bft) O-NO 67 -0,4 C 0,0 km/h (0 Bft)
26.01.2016 01:40 0,9 C 0,6 C 89 % 1033,0 hPa 0,0 mm 0,0 km/h (0 Bft) O-NO 67 -0,7 C 0,0 km/h (0 Bft)
26.01.2016 01:45 0,7 C 0,5 C 89 % 1033,2 hPa 0,0 mm 0,0 km/h (0 Bft) O 90 -0,9 C 0,0 km/h (0 Bft)
26.01.2016 01:50 0,9 C 0,6 C 89 % 1033,2 hPa 0,0 mm 0,0 km/h (0 Bft) O-NO 67 -0,7 C 0,0 km/h (0 Bft)
26.01.2016 01:55 0,8 C 0,5 C 89 % 1033,2 hPa 0,0 mm 0,0 km/h (0 Bft) O 90 -0,8 C 0,0 km/h (0 Bft)
26.01.2016 02:00 0,8 C 0,5 C 89 % 1033,2 hPa 0,0 mm 0,0 km/h (0 Bft) O 90 -0,8 C 0,0 km/h (0 Bft)
26.01.2016 02:05 0,7 C 0,4 C 89 % 1033,3 hPa 0,0 mm 0,0 km/h (0 Bft) S 180 -0,9 C 0,0 km/h (0 Bft)
26.01.2016 02:10 0,5 C 0,2 C 89 % 1033,3 hPa 0,0 mm 0,0 km/h (0 Bft) N 360 -1,1 C 0,0 km/h (0 Bft)
26.01.2016 02:15 0,4 C 0,1 C 89 % 1033,3 hPa 0,0 mm 0,0 km/h (0 Bft) O 90 -1,2 C 0,0 km/h (0 Bft)
26.01.2016 02:20 0,0 C -0,2 C 88 % 1033,3 hPa 0,0 mm 0,0 km/h (0 Bft) N-NO 22 -1,7 C 0,0 km/h (0 Bft)
26.01.2016 02:25 0,3 C 0,0 C 89 % 1033,2 hPa 0,0 mm 1,0 km/h (0 Bft) N-NO 22 -1,3 C 3,9 km/h (1 Bft)
26.01.2016 02:30 0,4 C 0,1 C 89 % 1033,2 hPa 0,0 mm 1,0 km/h (0 Bft) NO 45 -1,2 C 0,0 km/h (0 Bft)
26.01.2016 02:35 0,8 C 0,4 C 89 % 1033,2 hPa 0,0 mm 0,8 km/h (0 Bft) O 90 -0,8 C 0,0 km/h (0 Bft)
26.01.2016 02:40 0,8 C 0,4 C 90 % 1033,2 hPa 0,0 mm 0,5 km/h (0 Bft) O-NO 67 -0,6 C 0,0 km/h (0 Bft)
26.01.2016 02:45 0,9 C 0,5 C 90 % 1032,8 hPa 0,0 mm 0,5 km/h (0 Bft) SO 135 -0,6 C 2,8 km/h (1 Bft)
26.01.2016 02:50 1,5 C 1,1 C 90 % 1032,8 hPa 0,0 mm 2,8 km/h (1 Bft) O-SO 112 0,0 C 4,1 km/h (1 Bft)
26.01.2016 02:55 1,5 C 1,2 C 90 % 1032,8 hPa 0,0 mm 3,1 km/h (1 Bft) W-NW 292 0,0 C 3,6 km/h (1 Bft)
26.01.2016 03:00 1,3 C 1,1 C 89 % 1032,8 hPa 0,0 mm 1,6 km/h (1 Bft) W-SW 247 -0,3 C 0,0 km/h (0 Bft)
26.01.2016 03:05 1,2 C 1,0 C 89 % 1033,3 hPa 0,0 mm 0,8 km/h (0 Bft) N-NW 337 -0,4 C 0,0 km/h (0 Bft)
26.01.2016 03:10 1,1 C 0,9 C 89 % 1033,3 hPa 0,0 mm 0,3 km/h (0 Bft) NW 315 -0,5 C 4,7 km/h (1 Bft)
26.01.2016 03:15 1,6 C 1,2 C 89 % 1033,3 hPa 0,0 mm 1,0 km/h (0 Bft) S-SO 157 -0,0 C 5,4 km/h (1 Bft)
26.01.2016 03:20 3,4 C 2,9 C 83 % 1033,3 hPa 0,0 mm 4,9 km/h (1 Bft) W-SW 247 0,8 C 11,1 km/h (2 Bft)
26.01.2016 03:25 4,3 C 3,6 C 88 % 1033,3 hPa 0,0 mm 6,7 km/h (2 Bft) S 180 2,5 C 17,3 km/h (3 Bft)
26.01.2016 03:30 5,3 C 4,4 C 84 % 1033,3 hPa 0,0 mm 10,9 km/h (2 Bft) W-SW 247 2,8 C 20,2 km/h (4 Bft)
26.01.2016 03:35 5,3 C 4,7 C 80 % 1033,3 hPa 0,0 mm 12,7 km/h (3 Bft) W-SW 247 2,1 C 25,6 km/h (4 Bft)
26.01.2016 03:40 5,6 C 5,0 C 76 % 1033,3 hPa 0,0 mm 12,2 km/h (2 Bft) W-SW 247 1,7 C 8,3 km/h (2 Bft)
26.01.2016 03:45 5,4 C 5,0 C 75 % 1033,3 hPa 0,0 mm 9,8 km/h (2 Bft) W 270 1,3 C 8,3 km/h (2 Bft)
26.01.2016 03:50 5,2 C 5,0 C 74 % 1033,3 hPa 0,0 mm 6,7 km/h (2 Bft) SW 225 1,0 C 7,3 km/h (2 Bft)
26.01.2016 03:55 5,3 C 5,1 C 72 % 1033,3 hPa 0,0 mm 7,8 km/h (2 Bft) S-SW 202 0,7 C 10,6 km/h (2 Bft)
26.01.2016 04:00 4,9 C 4,7 C 72 % 1033,3 hPa 0,0 mm 7,5 km/h (2 Bft) SW 225 0,3 C 11,4 km/h (2 Bft)
26.01.2016 04:05 4,7 C 4,6 C 72 % 1033,4 hPa 0,0 mm 6,5 km/h (2 Bft) S 180 0,1 C 4,4 km/h (1 Bft)
26.01.2016 04:09 4,7 C 4,6 C 72 % 1033,4 hPa 0,0 mm 6,5 km/h (2 Bft) S 180 0,1 C 4,4 km/h (1 Bft)
26.01.2016 04:10 4,5 C 4,3 C 72 % 1033,4 hPa 0,0 mm 6,5 km/h (2 Bft) SW 225 -0,1 C 13,5 km/h (3 Bft)
26.01.2016 04:15 4,3 C 4,3 C 72 % 1033,4 hPa 0,0 mm 4,9 km/h (1 Bft) SW 225 -0,3 C 4,7 km/h (1 Bft)
26.01.2016 04:20 4,1 C 4,0 C 72 % 1033,4 hPa 0,0 mm 3,1 km/h (1 Bft) W-SW 247 -0,5 C 6,0 km/h (2 Bft)
26.01.2016 04:25 4,5 C 4,3 C 71 % 1033,3 hPa 0,0 mm 3,1 km/h (1 Bft) S-SO 157 -0,3 C 4,1 km/h (1 Bft)
26.01.2016 04:30 2,9 C 3,7 C 72 % 1033,3 hPa 0,0 mm 3,6 km/h (1 Bft) SW 225 -1,6 C 4,9 km/h (1 Bft)
26.01.2016 04:35 2,3 C 3,2 C 73 % 1033,3 hPa 0,0 mm 2,8 km/h (1 Bft) O 90 -2,0 C 0,0 km/h (0 Bft)
26.01.2016 04:40 1,8 C 1,9 C 74 % 1033,3 hPa 0,0 mm 1,6 km/h (1 Bft) O-SO 112 -2,3 C 0,0 km/h (0 Bft)
26.01.2016 04:45 1,7 C 1,6 C 76 % 1033,6 hPa 0,0 mm 0,0 km/h (0 Bft) NO 45 -2,1 C 0,0 km/h (0 Bft)
26.01.2016 04:50 2,1 C 1,7 C 78 % 1033,6 hPa 0,0 mm 0,3 km/h (0 Bft) W-NW 292 -1,3 C 0,0 km/h (0 Bft)
26.01.2016 04:55 1,7 C 1,4 C 78 % 1033,6 hPa 0,0 mm 0,5 km/h (0 Bft) O-NO 67 -1,7 C 0,0 km/h (0 Bft)
26.01.2016 05:00 1,3 C 1,1 C 77 % 1033,6 hPa 0,0 mm 0,5 km/h (0 Bft) NO 45 -2,3 C 0,0 km/h (0 Bft)
26.01.2016 05:05 1,2 C 1,0 C 78 % 1033,5 hPa 0,0 mm 0,5 km/h (0 Bft) S 180 -2,2 C 3,4 km/h (1 Bft)
26.01.2016 05:10 1,3 C 1,5 C 79 % 1033,5 hPa 0,0 mm 2,6 km/h (1 Bft) O-NO 67 -1,9 C 0,0 km/h (0 Bft)
26.01.2016 05:15 1,0 C 1,2 C 78 % 1033,5 hPa 0,0 mm 2,3 km/h (1 Bft) O-NO 67 -2,4 C 0,0 km/h (0 Bft)
26.01.2016 05:20 1,0 C 0,8 C 79 % 1033,5 hPa 0,0 mm 0,0 km/h (0 Bft) O-SO 112 -2,2 C 0,0 km/h (0 Bft)
26.01.2016 05:25 0,9 C 0,7 C 80 % 1033,7 hPa 0,0 mm 0,0 km/h (0 Bft) O-SO 112 -2,2 C 0,0 km/h (0 Bft)
26.01.2016 05:30 0,7 C 0,4 C 80 % 1033,7 hPa 0,0 mm 0,0 km/h (0 Bft) O-NO 67 -2,3 C 0,0 km/h (0 Bft)
26.01.2016 05:35 0,5 C 0,2 C 81 % 1033,7 hPa 0,0 mm 0,0 km/h (0 Bft) O-NO 67 -2,4 C 0,0 km/h (0 Bft)
26.01.2016 05:40 0,5 C 0,1 C 82 % 1033,7 hPa 0,0 mm 0,8 km/h (0 Bft) O-NO 67 -2,2 C 0,0 km/h (0 Bft)
26.01.2016 05:45 0,6 C 0,2 C 83 % 1033,9 hPa 0,0 mm 1,3 km/h (1 Bft) SO 135 -1,9 C 3,1 km/h (1 Bft)
26.01.2016 05:50 1,8 C 1,4 C 79 % 1033,9 hPa 0,0 mm 2,1 km/h (1 Bft) NO 45 -1,4 C 5,2 km/h (1 Bft)
26.01.2016 05:55 1,1 C 1,0 C 83 % 1033,9 hPa 0,0 mm 3,1 km/h (1 Bft) NW 315 -1,5 C 0,0 km/h (0 Bft)
26.01.2016 06:00 0,2 C 0,2 C 82 % 1033,9 hPa 0,0 mm 1,8 km/h (1 Bft) O-NO 67 -2,5 C 0,0 km/h (0 Bft)
26.01.2016 06:05 0,2 C 0,1 C 82 % 1033,8 hPa 0,0 mm 0,3 km/h (0 Bft) O-SO 112 -2,5 C 0,0 km/h (0 Bft)
26.01.2016 06:10 0,8 C 0,5 C 79 % 1033,8 hPa 0,0 mm 0,3 km/h (0 Bft) O-SO 112 -2,4 C 0,0 km/h (0 Bft)
26.01.2016 06:15 0,7 C 0,5 C 84 % 1033,8 hPa 0,0 mm 0,3 km/h (0 Bft) O-NO 67 -1,7 C 0,0 km/h (0 Bft)
26.01.2016 06:20 0,6 C 0,4 C 84 % 1033,8 hPa 0,0 mm 0,0 km/h (0 Bft) O-NO 67 -1,8 C 0,0 km/h (0 Bft)
26.01.2016 06:25 0,5 C 0,3 C 84 % 1034,0 hPa 0,0 mm 0,0 km/h (0 Bft) O-NO 67 -1,9 C 0,0 km/h (0 Bft)
26.01.2016 06:30 0,6 C 0,3 C 84 % 1034,0 hPa 0,0 mm 0,3 km/h (0 Bft) S-SO 157 -1,8 C 4,7 km/h (1 Bft)
26.01.2016 06:35 1,1 C 0,7 C 85 % 1034,0 hPa 0,0 mm 0,5 km/h (0 Bft) O-SO 112 -1,1 C 0,0 km/h (0 Bft)
26.01.2016 06:40 1,4 C 1,2 C 80 % 1034,0 hPa 0,0 mm 0,8 km/h (0 Bft) SO 135 -1,7 C 0,0 km/h (0 Bft)
26.01.2016 06:45 1,3 C 1,0 C 85 % 1034,0 hPa 0,0 mm 0,5 km/h (0 Bft) O-NO 67 -0,9 C 0,0 km/h (0 Bft)
26.01.2016 06:50 1,3 C 1,0 C 85 % 1034,0 hPa 0,0 mm 0,3 km/h (0 Bft) O 90 -0,9 C 0,0 km/h (0 Bft)
26.01.2016 06:55 1,1 C 0,9 C 85 % 1034,0 hPa 0,0 mm 0,0 km/h (0 Bft) O 90 -1,1 C 0,0 km/h (0 Bft)
26.01.2016 07:00 0,9 C 0,7 C 85 % 1034,0 hPa 0,0 mm 0,3 km/h (0 Bft) S-SO 157 -1,3 C 5,2 km/h (1 Bft)
26.01.2016 07:05 1,2 C 1,0 C 79 % 1033,8 hPa 0,0 mm 1,0 km/h (0 Bft) S-SO 157 -2,0 C 4,1 km/h (1 Bft)
26.01.2016 07:10 0,9 C 0,8 C 84 % 1033,8 hPa 0,0 mm 1,6 km/h (1 Bft) O-NO 67 -1,5 C 0,0 km/h (0 Bft)
26.01.2016 07:15 1,4 C 1,3 C 80 % 1033,8 hPa 0,0 mm 1,8 km/h (1 Bft) S-SO 157 -1,7 C 3,9 km/h (1 Bft)
26.01.2016 07:20 2,4 C 2,1 C 84 % 1033,8 hPa 0,0 mm 3,6 km/h (1 Bft) W 270 -0,0 C 4,4 km/h (1 Bft)
26.01.2016 07:25 2,5 C 2,2 C 83 % 1033,6 hPa 0,0 mm 2,8 km/h (1 Bft) O-SO 112 -0,1 C 2,8 km/h (1 Bft)
26.01.2016 07:30 1,7 C 1,7 C 82 % 1033,6 hPa 0,0 mm 0,5 km/h (0 Bft) O-SO 112 -1,0 C 0,0 km/h (0 Bft)
26.01.2016 07:35 1,3 C 1,3 C 81 % 1033,6 hPa 0,0 mm 0,3 km/h (0 Bft) O-NO 67 -1,6 C 0,0 km/h (0 Bft)
26.01.2016 07:40 1,5 C 1,2 C 81 % 1033,6 hPa 0,0 mm 0,3 km/h (0 Bft) O-SO 112 -1,4 C 0,0 km/h (0 Bft)
26.01.2016 07:45 1,1 C 0,9 C 81 % 1033,5 hPa 0,0 mm 0,3 km/h (0 Bft) O-SO 112 -1,8 C 0,0 km/h (0 Bft)
26.01.2016 07:50 1,0 C 0,8 C 81 % 1033,5 hPa 0,0 mm 0,0 km/h (0 Bft) N-NO 22 -1,9 C 0,0 km/h (0 Bft)
26.01.2016 07:55 1,0 C 0,8 C 81 % 1033,5 hPa 0,0 mm 0,0 km/h (0 Bft) O-NO 67 -1,9 C 0,0 km/h (0 Bft)
26.01.2016 08:00 1,2 C 1,0 C 82 % 1033,5 hPa 0,0 mm 0,0 km/h (0 Bft) N-NO 22 -1,5 C 0,0 km/h (0 Bft)
26.01.2016 08:05 1,3 C 1,0 C 82 % 1033,7 hPa 0,0 mm 0,0 km/h (0 Bft) O-NO 67 -1,4 C 0,0 km/h (0 Bft)
26.01.2016 08:10 1,2 C 1,0 C 82 % 1033,7 hPa 0,0 mm 0,0 km/h (0 Bft) O-SO 112 -1,5 C 0,0 km/h (0 Bft)
26.01.2016 08:15 1,2 C 1,0 C 82 % 1033,7 hPa 0,0 mm 0,0 km/h (0 Bft) O-NO 67 -1,5 C 0,0 km/h (0 Bft)
26.01.2016 08:20 1,1 C 1,0 C 82 % 1033,7 hPa 0,0 mm 0,0 km/h (0 Bft) O-SO 112 -1,6 C 0,0 km/h (0 Bft)
26.01.2016 08:25 1,3 C 1,1 C 82 % 1033,3 hPa 0,0 mm 0,0 km/h (0 Bft) O-NO 67 -1,4 C 0,0 km/h (0 Bft)
26.01.2016 08:30 1,0 C 1,0 C 82 % 1033,3 hPa 0,0 mm 0,0 km/h (0 Bft) NO 45 -1,7 C 0,0 km/h (0 Bft)
26.01.2016 08:35 1,0 C 1,1 C 82 % 1033,3 hPa 0,0 mm 0,0 km/h (0 Bft) NO 45 -1,7 C 0,0 km/h (0 Bft)
26.01.2016 08:40 1,2 C 2,2 C 79 % 1033,3 hPa 0,0 mm 0,0 km/h (0 Bft) SO 135 -2,0 C 0,0 km/h (0 Bft)
26.01.2016 08:45 1,8 C 2,6 C 79 % 1032,8 hPa 0,0 mm 0,0 km/h (0 Bft) SO 135 -1,4 C 0,0 km/h (0 Bft)
26.01.2016 08:50 2,4 C 3,3 C 79 % 1032,8 hPa 0,0 mm 0,0 km/h (0 Bft) S-SO 157 -0,9 C 0,0 km/h (0 Bft)
26.01.2016 08:55 2,8 C 3,8 C 79 % 1032,8 hPa 0,0 mm 0,0 km/h (0 Bft) NW 315 -0,5 C 0,0 km/h (0 Bft)
26.01.2016 09:00 3,3 C 4,5 C 78 % 1032,8 hPa 0,0 mm 0,3 km/h (0 Bft) NW 315 -0,2 C 2,8 km/h (1 Bft)
26.01.2016 09:05 3,6 C 5,0 C 78 % 1032,7 hPa 0,0 mm 0,3 km/h (0 Bft) O 90 0,1 C 0,0 km/h (0 Bft)
26.01.2016 09:10 3,7 C 5,1 C 78 % 1032,7 hPa 0,0 mm 1,3 km/h (1 Bft) O-SO 112 0,2 C 0,0 km/h (0 Bft)
26.01.2016 09:15 3,4 C 4,6 C 77 % 1032,7 hPa 0,0 mm 1,8 km/h (1 Bft) O-NO 67 -0,2 C 0,0 km/h (0 Bft)
26.01.2016 09:20 3,4 C 4,3 C 76 % 1032,7 hPa 0,0 mm 0,5 km/h (0 Bft) S 180 -0,4 C 0,0 km/h (0 Bft)
26.01.2016 09:25 3,4 C 4,4 C 76 % 1033,0 hPa 0,0 mm 0,8 km/h (0 Bft) N-NW 337 -0,4 C 4,7 km/h (1 Bft)
26.01.2016 09:30 3,5 C 4,4 C 75 % 1033,0 hPa 0,0 mm 1,6 km/h (1 Bft) S 180 -0,5 C 4,9 km/h (1 Bft)
26.01.2016 09:35 3,8 C 4,7 C 75 % 1033,0 hPa 0,0 mm 3,4 km/h (1 Bft) SO 135 -0,2 C 4,9 km/h (1 Bft)
26.01.2016 09:40 4,0 C 5,4 C 74 % 1033,0 hPa 0,0 mm 3,6 km/h (1 Bft) NW 315 -0,2 C 5,2 km/h (1 Bft)
26.01.2016 09:45 4,1 C 5,5 C 74 % 1033,0 hPa 0,0 mm 1,8 km/h (1 Bft) NW 315 -0,1 C 0,0 km/h (0 Bft)
26.01.2016 09:50 4,0 C 5,7 C 74 % 1033,0 hPa 0,0 mm 0,5 km/h (0 Bft) NW 315 -0,2 C 0,0 km/h (0 Bft)
26.01.2016 09:55 4,0 C 5,7 C 74 % 1033,0 hPa 0,0 mm 0,0 km/h (0 Bft) N-NO 22 -0,2 C 0,0 km/h (0 Bft)
26.01.2016 10:00 3,9 C 5,7 C 74 % 1033,0 hPa 0,0 mm 0,0 km/h (0 Bft) N-NO 22 -0,3 C 0,0 km/h (0 Bft)
26.01.2016 10:05 3,8 C 5,6 C 74 % 1032,7 hPa 0,0 mm 0,0 km/h (0 Bft) N-NO 22 -0,4 C 0,0 km/h (0 Bft)
26.01.2016 10:10 3,9 C 5,7 C 74 % 1032,7 hPa 0,0 mm 0,0 km/h (0 Bft) N-NO 22 -0,3 C 0,0 km/h (0 Bft)
26.01.2016 10:15 3,9 C 5,7 C 74 % 1032,7 hPa 0,0 mm 0,0 km/h (0 Bft) O-NO 67 -0,3 C 0,0 km/h (0 Bft)
26.01.2016 10:20 4,0 C 5,7 C 74 % 1032,7 hPa 0,0 mm 0,0 km/h (0 Bft) O-NO 67 -0,2 C 0,0 km/h (0 Bft)
26.01.2016 10:25 4,4 C 6,0 C 74 % 1032,7 hPa 0,0 mm 0,3 km/h (0 Bft) SO 135 0,2 C 2,6 km/h (1 Bft)
26.01.2016 10:30 4,8 C 6,5 C 73 % 1032,7 hPa 0,0 mm 0,3 km/h (0 Bft) SO 135 0,4 C 0,0 km/h (0 Bft)
26.01.2016 10:35 4,7 C 6,7 C 73 % 1032,7 hPa 0,0 mm 0,3 km/h (0 Bft) W-NW 292 0,3 C 0,0 km/h (0 Bft)
26.01.2016 10:40 4,9 C 7,0 C 73 % 1032,7 hPa 0,0 mm 0,0 km/h (0 Bft) W-NW 292 0,5 C 0,0 km/h (0 Bft)
26.01.2016 10:45 4,9 C 7,0 C 73 % 1033,0 hPa 0,0 mm 0,3 km/h (0 Bft) W-NW 292 0,5 C 0,0 km/h (0 Bft)
26.01.2016 10:50 4,8 C 7,1 C 72 % 1033,0 hPa 0,0 mm 0,5 km/h (0 Bft) W-SW 247 0,2 C 0,0 km/h (0 Bft)
26.01.2016 10:55 5,1 C 7,3 C 71 % 1033,0 hPa 0,0 mm 0,0 km/h (0 Bft) S 180 0,3 C 0,0 km/h (0 Bft)
26.01.2016 11:00 5,4 C 7,7 C 70 % 1033,0 hPa 0,0 mm 0,0 km/h (0 Bft) S-SO 157 0,4 C 0,0 km/h (0 Bft)
26.01.2016 11:05 5,5 C 8,0 C 69 % 1032,9 hPa 0,0 mm 0,0 km/h (0 Bft) S 180 0,3 C 2,6 km/h (1 Bft)
26.01.2016 11:10 6,0 C 8,4 C 68 % 1032,9 hPa 0,0 mm 0,3 km/h (0 Bft) O-NO 67 0,6 C 0,0 km/h (0 Bft)
26.01.2016 11:15 5,9 C 8,3 C 69 % 1032,9 hPa 0,0 mm 0,3 km/h (0 Bft) O-NO 67 0,7 C 0,0 km/h (0 Bft)
26.01.2016 11:20 5,9 C 8,2 C 69 % 1032,9 hPa 0,0 mm 0,0 km/h (0 Bft) O-NO 67 0,7 C 0,0 km/h (0 Bft)
26.01.2016 11:25 5,8 C 8,2 C 69 % 1033,0 hPa 0,0 mm 0,0 km/h (0 Bft) O-NO 67 0,6 C 0,0 km/h (0 Bft)
26.01.2016 11:30 6,0 C 8,2 C 68 % 1033,0 hPa 0,0 mm 0,0 km/h (0 Bft) O-NO 67 0,6 C 0,0 km/h (0 Bft)
26.01.2016 11:35 5,9 C 8,3 C 69 % 1033,0 hPa 0,0 mm 0,0 km/h (0 Bft) O-NO 67 0,7 C 0,0 km/h (0 Bft)
26.01.2016 11:40 5,9 C 8,2 C 69 % 1033,0 hPa 0,0 mm 0,0 km/h (0 Bft) O-NO 67 0,7 C 0,0 km/h (0 Bft)
26.01.2016 11:45 5,9 C 8,3 C 69 % 1033,0 hPa 0,0 mm 0,0 km/h (0 Bft) O-NO 67 0,7 C 0,0 km/h (0 Bft)
26.01.2016 11:50 5,9 C 8,2 C 69 % 1033,0 hPa 0,0 mm 0,0 km/h (0 Bft) O-NO 67 0,7 C 0,0 km/h (0 Bft)
26.01.2016 11:55 6,0 C 8,3 C 68 % 1033,0 hPa 0,0 mm 0,0 km/h (0 Bft) NO 45 0,6 C 0,0 km/h (0 Bft)
26.01.2016 12:00 6,3 C 8,6 C 68 % 1033,0 hPa 0,0 mm 0,0 km/h (0 Bft) O-SO 112 0,8 C 0,0 km/h (0 Bft)
26.01.2016 12:05 6,4 C 8,9 C 68 % 1032,9 hPa 0,0 mm 0,0 km/h (0 Bft) O-SO 112 0,9 C 0,0 km/h (0 Bft)
26.01.2016 12:10 6,9 C 9,2 C 68 % 1032,9 hPa 0,0 mm 0,0 km/h (0 Bft) O-NO 67 1,4 C 0,0 km/h (0 Bft)
26.01.2016 12:15 7,2 C 9,4 C 67 % 1032,9 hPa 0,0 mm 0,0 km/h (0 Bft) O 90 1,5 C 0,0 km/h (0 Bft)
26.01.2016 12:20 7,4 C 9,7 C 66 % 1032,9 hPa 0,0 mm 0,0 km/h (0 Bft) O 90 1,5 C 0,0 km/h (0 Bft)
26.01.2016 12:25 7,6 C 9,7 C 66 % 1032,8 hPa 0,0 mm 0,0 km/h (0 Bft) O 90 1,7 C 0,0 km/h (0 Bft)
26.01.2016 12:30 7,8 C 9,4 C 65 % 1032,8 hPa 0,0 mm 0,0 km/h (0 Bft) O-SO 112 1,6 C 0,0 km/h (0 Bft)
26.01.2016 12:35 7,7 C 9,4 C 64 % 1032,8 hPa 0,0 mm 0,0 km/h (0 Bft) O 90 1,3 C 0,0 km/h (0 Bft)
26.01.2016 12:40 7,8 C 9,5 C 64 % 1032,8 hPa 0,0 mm 0,0 km/h (0 Bft) O 90 1,4 C 0,0 km/h (0 Bft)
26.01.2016 12:45 8,0 C 9,6 C 63 % 1032,8 hPa 0,0 mm 0,0 km/h (0 Bft) O 90 1,4 C 0,0 km/h (0 Bft)
26.01.2016 12:50 8,3 C 9,7 C 61 % 1032,8 hPa 0,0 mm 0,0 km/h (0 Bft) O 90 1,2 C 0,0 km/h (0 Bft)
26.01.2016 12:55 8,5 C 9,5 C 59 % 1032,8 hPa 0,0 mm 0,0 km/h (0 Bft) O-SO 112 1,0 C 0,0 km/h (0 Bft)
26.01.2016 13:00 8,6 C 9,4 C 59 % 1032,8 hPa 0,0 mm 0,3 km/h (0 Bft) SW 225 1,0 C 0,0 km/h (0 Bft)
26.01.2016 13:05 8,5 C 9,4 C 59 % 1032,7 hPa 0,0 mm 0,5 km/h (0 Bft) S-SW 202 1,0 C 0,0 km/h (0 Bft)
26.01.2016 13:10 8,7 C 9,4 C 60 % 1032,7 hPa 0,0 mm 0,8 km/h (0 Bft) SO 135 1,4 C 0,0 km/h (0 Bft)
26.01.2016 13:15 8,6 C 9,4 C 60 % 1032,7 hPa 0,0 mm 0,3 km/h (0 Bft) W 270 1,3 C 0,0 km/h (0 Bft)
26.01.2016 13:20 8,6 C 9,4 C 60 % 1032,7 hPa 0,0 mm 0,0 km/h (0 Bft) O-NO 67 1,3 C 0,0 km/h (0 Bft)
26.01.2016 13:25 8,5 C 9,4 C 60 % 1032,5 hPa 0,0 mm 0,0 km/h (0 Bft) O-NO 67 1,2 C 0,0 km/h (0 Bft)
26.01.2016 13:30 8,9 C 9,4 C 60 % 1032,5 hPa 0,0 mm 0,0 km/h (0 Bft) O-NO 67 1,6 C 0,0 km/h (0 Bft)
26.01.2016 13:35 9,3 C 9,6 C 60 % 1032,5 hPa 0,0 mm 0,0 km/h (0 Bft) O-NO 67 1,9 C 0,0 km/h (0 Bft)
26.01.2016 13:40 9,7 C 9,8 C 59 % 1032,5 hPa 0,0 mm 0,0 km/h (0 Bft) O-NO 67 2,1 C 0,0 km/h (0 Bft)
26.01.2016 13:45 9,7 C 10,0 C 59 % 1032,2 hPa 0,0 mm 0,0 km/h (0 Bft) O-NO 67 2,1 C 0,0 km/h (0 Bft)
26.01.2016 13:50 10,1 C 11,1 C 58 % 1032,2 hPa 0,0 mm 0,0 km/h (0 Bft) O-NO 67 2,2 C 0,0 km/h (0 Bft)
26.01.2016 13:55 10,8 C 13,7 C 56 % 1032,2 hPa 0,0 mm 0,0 km/h (0 Bft) N-NO 22 2,4 C 0,0 km/h (0 Bft)
26.01.2016 14:00 11,3 C 16,1 C 55 % 1032,2 hPa 0,0 mm 0,0 km/h (0 Bft) NO 45 2,6 C 0,0 km/h (0 Bft)
26.01.2016 14:05 11,7 C 17,3 C 54 % 1032,0 hPa 0,0 mm 0,0 km/h (0 Bft) N-NO 22 2,7 C 0,0 km/h (0 Bft)
26.01.2016 14:10 12,1 C 18,4 C 55 % 1032,0 hPa 0,0 mm 0,0 km/h (0 Bft) N-NO 22 3,3 C 0,0 km/h (0 Bft)
26.01.2016 14:15 12,4 C 19,1 C 54 % 1032,0 hPa 0,0 mm 0,0 km/h (0 Bft) N-NO 22 3,4 C 0,0 km/h (0 Bft)
26.01.2016 14:20 12,1 C 19,7 C 53 % 1032,0 hPa 0,0 mm 0,0 km/h (0 Bft) NO 45 2,8 C 0,0 km/h (0 Bft)
26.01.2016 14:25 11,7 C 20,1 C 52 % 1032,0 hPa 0,0 mm 0,0 km/h (0 Bft) N-NO 22 2,2 C 0,0 km/h (0 Bft)
26.01.2016 14:30 11,6 C 20,3 C 53 % 1032,0 hPa 0,0 mm 0,0 km/h (0 Bft) NO 45 2,4 C 0,0 km/h (0 Bft)
26.01.2016 14:35 11,6 C 20,5 C 52 % 1032,0 hPa 0,0 mm 0,0 km/h (0 Bft) NO 45 2,1 C 0,0 km/h (0 Bft)
26.01.2016 14:40 11,7 C 20,4 C 52 % 1032,0 hPa 0,0 mm 0,0 km/h (0 Bft) NO 45 2,2 C 0,0 km/h (0 Bft)
26.01.2016 14:45 11,9 C 20,4 C 50 % 1032,2 hPa 0,0 mm 0,3 km/h (0 Bft) SW 225 1,8 C 2,8 km/h (1 Bft)
26.01.2016 14:50 12,2 C 20,0 C 49 % 1032,2 hPa 0,0 mm 0,5 km/h (0 Bft) W-SW 247 1,8 C 3,4 km/h (1 Bft)
26.01.2016 14:55 12,4 C 19,5 C 49 % 1032,2 hPa 0,0 mm 1,8 km/h (1 Bft) W-SW 247 2,0 C 5,7 km/h (1 Bft)
26.01.2016 15:00 12,4 C 19,1 C 49 % 1032,2 hPa 0,0 mm 2,1 km/h (1 Bft) W-SW 247 2,0 C 2,6 km/h (1 Bft)
26.01.2016 15:05 12,5 C 18,8 C 49 % 1032,0 hPa 0,0 mm 2,1 km/h (1 Bft) W-SW 247 2,1 C 5,7 km/h (1 Bft)
26.01.2016 15:10 12,6 C 18,4 C 49 % 1032,0 hPa 0,0 mm 3,1 km/h (1 Bft) W 270 2,2 C 5,7 km/h (1 Bft)
26.01.2016 15:15 12,6 C 18,0 C 49 % 1032,0 hPa 0,0 mm 4,7 km/h (1 Bft) W 270 2,2 C 13,5 km/h (3 Bft)
26.01.2016 15:20 12,5 C 17,1 C 49 % 1032,0 hPa 0,0 mm 7,3 km/h (2 Bft) W-SW 247 2,1 C 12,2 km/h (2 Bft)
26.01.2016 15:25 12,2 C 16,8 C 49 % 1031,8 hPa 0,0 mm 7,0 km/h (2 Bft) W-NW 292 1,8 C 2,6 km/h (1 Bft)
26.01.2016 15:30 11,7 C 16,6 C 50 % 1031,8 hPa 0,0 mm 5,7 km/h (1 Bft) W-SW 247 1,6 C 9,1 km/h (2 Bft)
26.01.2016 15:35 11,4 C 16,4 C 50 % 1031,8 hPa 0,0 mm 5,7 km/h (1 Bft) W 270 1,4 C 7,3 km/h (2 Bft)
26.01.2016 15:40 11,2 C 15,3 C 50 % 1031,8 hPa 0,0 mm 6,7 km/h (2 Bft) SW 225 1,2 C 11,9 km/h (2 Bft)
26.01.2016 15:45 11,1 C 14,1 C 50 % 1031,8 hPa 0,0 mm 7,8 km/h (2 Bft) NW 315 1,1 C 15,3 km/h (3 Bft)
26.01.2016 15:50 11,1 C 12,8 C 50 % 1031,8 hPa 0,0 mm 9,1 km/h (2 Bft) W-NW 292 1,1 C 13,5 km/h (3 Bft)
26.01.2016 15:55 10,9 C 12,4 C 50 % 1031,8 hPa 0,0 mm 8,3 km/h (2 Bft) W-SW 247 0,9 C 9,3 km/h (2 Bft)
26.01.2016 16:00 10,7 C 11,9 C 50 % 1031,8 hPa 0,0 mm 7,8 km/h (2 Bft) W-SW 247 0,7 C 9,3 km/h (2 Bft)
26.01.2016 16:05 10,7 C 11,6 C 50 % 1031,7 hPa 0,0 mm 7,3 km/h (2 Bft) W 270 0,7 C 9,3 km/h (2 Bft)
26.01.2016 16:09 10,5 C 11,2 C 50 % 1031,7 hPa 0,0 mm 6,5 km/h (2 Bft) W-SW 247 0,5 C 8,5 km/h (2 Bft)
26.01.2016 16:11 10,5 C 11,2 C 50 % 1031,7 hPa 0,0 mm 6,5 km/h (2 Bft) W-SW 247 0,5 C 8,5 km/h (2 Bft)
26.01.2016 16:15 10,5 C 11,1 C 50 % 1031,7 hPa 0,0 mm 6,5 km/h (2 Bft) W-NW 292 0,5 C 11,4 km/h (2 Bft)
26.01.2016 16:20 10,6 C 10,9 C 49 % 1031,7 hPa 0,0 mm 7,5 km/h (2 Bft) W-SW 247 0,3 C 6,5 km/h (2 Bft)
26.01.2016 16:25 10,5 C 10,8 C 49 % 1031,9 hPa 0,0 mm 7,5 km/h (2 Bft) W 270 0,2 C 5,2 km/h (1 Bft)
26.01.2016 16:30 10,2 C 10,8 C 50 % 1031,9 hPa 0,0 mm 6,7 km/h (2 Bft) SW 225 0,3 C 7,8 km/h (2 Bft)
26.01.2016 16:35 10,4 C 10,7 C 50 % 1031,9 hPa 0,0 mm 6,7 km/h (2 Bft) N-NO 22 0,4 C 4,9 km/h (1 Bft)
26.01.2016 16:40 10,1 C 10,5 C 50 % 1031,9 hPa 0,0 mm 6,7 km/h (2 Bft) SW 225 0,2 C 5,7 km/h (1 Bft)
26.01.2016 16:45 10,0 C 10,4 C 50 % 1031,9 hPa 0,0 mm 6,2 km/h (2 Bft) W 270 0,1 C 5,4 km/h (1 Bft)
26.01.2016 16:50 9,8 C 10,2 C 50 % 1031,9 hPa 0,0 mm 6,5 km/h (2 Bft) W 270 -0,1 C 6,2 km/h (2 Bft)
26.01.2016 16:55 9,6 C 10,0 C 51 % 1031,9 hPa 0,0 mm 6,0 km/h (2 Bft) W 270 -0,0 C 7,0 km/h (2 Bft)
26.01.2016 17:00 9,6 C 9,8 C 51 % 1031,9 hPa 0,0 mm 6,0 km/h (2 Bft) W-SW 247 -0,0 C 10,9 km/h (2 Bft)
26.01.2016 17:05 9,6 C 9,7 C 51 % 1032,0 hPa 0,0 mm 6,2 km/h (2 Bft) W-SW 247 -0,0 C 5,4 km/h (1 Bft)
26.01.2016 17:10 9,6 C 9,7 C 51 % 1032,0 hPa 0,0 mm 7,0 km/h (2 Bft) W-SW 247 -0,0 C 8,0 km/h (2 Bft)
26.01.2016 17:15 9,5 C 9,6 C 51 % 1032,0 hPa 0,0 mm 6,7 km/h (2 Bft) W-SW 247 -0,1 C 9,3 km/h (2 Bft)
26.01.2016 17:20 9,4 C 9,4 C 51 % 1032,0 hPa 0,0 mm 7,0 km/h (2 Bft) W-SW 247 -0,2 C 9,1 km/h (2 Bft)
26.01.2016 17:25 9,7 C 9,6 C 51 % 1032,2 hPa 0,0 mm 7,3 km/h (2 Bft) W-SW 247 0,1 C 12,9 km/h (3 Bft)
26.01.2016 17:30 9,8 C 9,6 C 51 % 1032,2 hPa 0,0 mm 8,3 km/h (2 Bft) W-SW 247 0,2 C 11,9 km/h (2 Bft)
26.01.2016 17:35 9,9 C 9,6 C 50 % 1032,2 hPa 0,0 mm 9,1 km/h (2 Bft) W-SW 247 -0,0 C 11,1 km/h (2 Bft)
26.01.2016 17:40 9,8 C 9,5 C 50 % 1032,2 hPa 0,0 mm 9,3 km/h (2 Bft) W-SW 247 -0,1 C 14,2 km/h (3 Bft)
26.01.2016 17:45 9,5 C 9,3 C 51 % 1032,0 hPa 0,0 mm 10,1 km/h (2 Bft) SW 225 -0,1 C 11,1 km/h (2 Bft)
26.01.2016 17:50 8,7 C 8,6 C 52 % 1032,0 hPa 0,0 mm 10,1 km/h (2 Bft) W-SW 247 -0,6 C 6,0 km/h (2 Bft)
26.01.2016 17:55 8,1 C 8,3 C 54 % 1032,0 hPa 0,0 mm 7,3 km/h (2 Bft) S-SO 157 -0,6 C 3,4 km/h (1 Bft)
26.01.2016 18:00 7,7 C 7,7 C 55 % 1032,0 hPa 0,0 mm 2,3 km/h (1 Bft) S-SO 157 -0,8 C 0,0 km/h (0 Bft)
26.01.2016 18:05 7,5 C 7,4 C 56 % 1032,2 hPa 0,0 mm 1,3 km/h (1 Bft) S-SO 157 -0,7 C 4,7 km/h (1 Bft)
26.01.2016 18:10 7,2 C 7,1 C 57 % 1032,2 hPa 0,0 mm 1,6 km/h (1 Bft) S 180 -0,7 C 0,0 km/h (0 Bft)
26.01.2016 18:15 7,3 C 7,1 C 58 % 1032,2 hPa 0,0 mm 2,1 km/h (1 Bft) S 180 -0,4 C 2,8 km/h (1 Bft)
26.01.2016 18:20 7,1 C 6,9 C 58 % 1032,2 hPa 0,0 mm 1,8 km/h (1 Bft) S-SO 157 -0,6 C 4,1 km/h (1 Bft)
26.01.2016 18:25 6,9 C 6,7 C 58 % 1031,8 hPa 0,0 mm 2,1 km/h (1 Bft) SO 135 -0,8 C 3,6 km/h (1 Bft)
26.01.2016 18:30 6,6 C 6,4 C 59 % 1031,8 hPa 0,0 mm 2,1 km/h (1 Bft) S-SO 157 -0,8 C 3,6 km/h (1 Bft)
26.01.2016 18:35 6,5 C 6,2 C 59 % 1031,8 hPa 0,0 mm 2,1 km/h (1 Bft) S 180 -0,9 C 4,4 km/h (1 Bft)
26.01.2016 18:40 6,6 C 6,3 C 60 % 1031,8 hPa 0,0 mm 3,1 km/h (1 Bft) SO 135 -0,6 C 4,1 km/h (1 Bft)
26.01.2016 18:45 6,7 C 6,4 C 60 % 1031,9 hPa 0,0 mm 3,6 km/h (1 Bft) SO 135 -0,5 C 3,6 km/h (1 Bft)
26.01.2016 18:50 6,7 C 6,4 C 60 % 1031,9 hPa 0,0 mm 2,6 km/h (1 Bft) S-SO 157 -0,5 C 2,6 km/h (1 Bft)
26.01.2016 18:55 6,5 C 6,2 C 60 % 1031,9 hPa 0,0 mm 1,6 km/h (1 Bft) SO 135 -0,7 C 0,0 km/h (0 Bft)
26.01.2016 19:00 6,5 C 6,2 C 60 % 1031,9 hPa 0,0 mm 1,6 km/h (1 Bft) SO 135 -0,7 C 3,1 km/h (1 Bft)
26.01.2016 19:05 6,5 C 6,1 C 60 % 1031,8 hPa 0,0 mm 1,3 km/h (1 Bft) S-SO 157 -0,7 C 0,0 km/h (0 Bft)
26.01.2016 19:10 6,6 C 6,1 C 60 % 1031,8 hPa 0,0 mm 0,3 km/h (0 Bft) S 180 -0,6 C 2,6 km/h (1 Bft)
26.01.2016 19:15 6,6 C 6,1 C 60 % 1031,8 hPa 0,0 mm 0,3 km/h (0 Bft) S 180 -0,6 C 0,0 km/h (0 Bft)
26.01.2016 19:20 6,6 C 6,1 C 60 % 1031,8 hPa 0,0 mm 0,3 km/h (0 Bft) S 180 -0,6 C 0,0 km/h (0 Bft)
26.01.2016 19:25 6,5 C 6,1 C 60 % 1031,7 hPa 0,0 mm 0,5 km/h (0 Bft) SO 135 -0,7 C 0,0 km/h (0 Bft)
26.01.2016 19:30 6,1 C 5,7 C 60 % 1031,7 hPa 0,0 mm 0,5 km/h (0 Bft) O-SO 112 -1,1 C 0,0 km/h (0 Bft)
26.01.2016 19:35 5,8 C 5,5 C 62 % 1031,7 hPa 0,0 mm 0,3 km/h (0 Bft) O-SO 112 -0,9 C 0,0 km/h (0 Bft)
26.01.2016 19:40 4,1 C 4,1 C 63 % 1031,7 hPa 0,0 mm 0,3 km/h (0 Bft) O-SO 112 -2,3 C 0,0 km/h (0 Bft)
26.01.2016 19:45 3,8 C 3,7 C 65 % 1031,7 hPa 0,0 mm 0,0 km/h (0 Bft) O-SO 112 -2,2 C 0,0 km/h (0 Bft)
26.01.2016 19:50 3,3 C 3,1 C 66 % 1031,7 hPa 0,0 mm 0,0 km/h (0 Bft) SO 135 -2,4 C 2,8 km/h (1 Bft)
26.01.2016 19:55 4,0 C 3,4 C 69 % 1031,7 hPa 0,0 mm 0,0 km/h (0 Bft) O-SO 112 -1,2 C 0,0 km/h (0 Bft)
26.01.2016 20:00 3,8 C 3,3 C 70 % 1031,7 hPa 0,0 mm 0,3 km/h (0 Bft) S-SO 157 -1,2 C 0,0 km/h (0 Bft)
26.01.2016 20:05 4,4 C 3,8 C 67 % 1031,7 hPa 0,0 mm 0,3 km/h (0 Bft) O-SO 112 -1,2 C 0,0 km/h (0 Bft)
26.01.2016 20:10 3,8 C 3,3 C 70 % 1031,7 hPa 0,0 mm 0,8 km/h (0 Bft) O-NO 67 -1,2 C 3,1 km/h (1 Bft)
26.01.2016 20:15 4,0 C 3,7 C 68 % 1031,7 hPa 0,0 mm 1,6 km/h (1 Bft) O-SO 112 -1,4 C 5,4 km/h (1 Bft)
26.01.2016 20:20 3,3 C 3,1 C 70 % 1031,7 hPa 0,0 mm 1,3 km/h (1 Bft) S-SO 157 -1,6 C 0,0 km/h (0 Bft)
26.01.2016 20:25 2,8 C 2,7 C 71 % 1031,8 hPa 0,0 mm 0,8 km/h (0 Bft) O-SO 112 -1,9 C 0,0 km/h (0 Bft)
26.01.2016 20:30 2,8 C 2,6 C 73 % 1031,8 hPa 0,0 mm 0,0 km/h (0 Bft) O-NO 67 -1,5 C 0,0 km/h (0 Bft)
26.01.2016 20:35 3,0 C 2,7 C 69 % 1031,8 hPa 0,0 mm 0,3 km/h (0 Bft) SO 135 -2,1 C 0,0 km/h (0 Bft)
26.01.2016 20:40 3,8 C 3,3 C 72 % 1031,8 hPa 0,0 mm 0,3 km/h (0 Bft) N-NO 22 -0,8 C 0,0 km/h (0 Bft)
26.01.2016 20:45 2,8 C 2,6 C 73 % 1031,8 hPa 0,0 mm 0,3 km/h (0 Bft) NO 45 -1,5 C 0,0 km/h (0 Bft)
26.01.2016 20:50 2,6 C 2,4 C 74 % 1031,8 hPa 0,0 mm 0,5 km/h (0 Bft) S-SO 157 -1,6 C 0,0 km/h (0 Bft)
26.01.2016 20:55 3,3 C 3,0 C 70 % 1031,8 hPa 0,0 mm 1,3 km/h (1 Bft) S 180 -1,6 C 4,4 km/h (1 Bft)
26.01.2016 21:00 2,9 C 2,8 C 74 % 1031,8 hPa 0,0 mm 1,8 km/h (1 Bft) S 180 -1,3 C 2,6 km/h (1 Bft)
26.01.2016 21:05 3,5 C 3,3 C 74 % 1031,8 hPa 0,0 mm 3,1 km/h (1 Bft) S 180 -0,7 C 5,7 km/h (1 Bft)
26.01.2016 21:10 3,3 C 3,7 C 73 % 1031,8 hPa 0,0 mm 3,4 km/h (1 Bft) W-SW 247 -1,1 C 8,8 km/h (2 Bft)
26.01.2016 21:15 4,3 C 4,4 C 70 % 1031,8 hPa 0,0 mm 2,8 km/h (1 Bft) SW 225 -0,7 C 3,9 km/h (1 Bft)
26.01.2016 21:20 4,8 C 4,8 C 69 % 1031,8 hPa 0,0 mm 4,1 km/h (1 Bft) SO 135 -0,4 C 3,1 km/h (1 Bft)
26.01.2016 21:25 5,1 C 5,0 C 68 % 1031,7 hPa 0,0 mm 3,4 km/h (1 Bft) S-SO 157 -0,3 C 3,9 km/h (1 Bft)
26.01.2016 21:30 5,1 C 5,0 C 67 % 1031,7 hPa 0,0 mm 1,3 km/h (1 Bft) S 180 -0,5 C 0,0 km/h (0 Bft)
26.01.2016 21:35 4,7 C 4,7 C 67 % 1031,7 hPa 0,0 mm 1,3 km/h (1 Bft) SO 135 -0,9 C 0,0 km/h (0 Bft)
26.01.2016 21:40 4,8 C 4,7 C 69 % 1031,7 hPa 0,0 mm 1,0 km/h (0 Bft) SO 135 -0,4 C 0,0 km/h (0 Bft)
26.01.2016 21:45 5,0 C 4,8 C 67 % 1031,7 hPa 0,0 mm 0,5 km/h (0 Bft) O-SO 112 -0,6 C 0,0 km/h (0 Bft)
26.01.2016 21:50 5,1 C 4,7 C 67 % 1031,7 hPa 0,0 mm 0,3 km/h (0 Bft) S-SO 157 -0,5 C 3,9 km/h (1 Bft)
26.01.2016 21:55 5,1 C 4,7 C 67 % 1031,7 hPa 0,0 mm 0,3 km/h (0 Bft) S 180 -0,5 C 0,0 km/h (0 Bft)
26.01.2016 22:00 5,0 C 4,6 C 67 % 1031,7 hPa 0,0 mm 0,8 km/h (0 Bft) SO 135 -0,6 C 3,4 km/h (1 Bft)
26.01.2016 22:05 5,1 C 4,7 C 67 % 1031,7 hPa 0,0 mm 1,0 km/h (0 Bft) S-SW 202 -0,5 C 0,0 km/h (0 Bft)
26.01.2016 22:10 5,0 C 4,6 C 67 % 1031,7 hPa 0,0 mm 1,6 km/h (1 Bft) O-SO 112 -0,6 C 2,6 km/h (1 Bft)
26.01.2016 22:12 5,0 C 4,6 C 67 % 1031,7 hPa 0,0 mm 1,6 km/h (1 Bft) O-SO 112 -0,6 C 2,6 km/h (1 Bft)
26.01.2016 22:15 5,1 C 4,7 C 67 % 1031,7 hPa 0,0 mm 1,3 km/h (1 Bft) S-SW 202 -0,5 C 2,8 km/h (1 Bft)
26.01.2016 22:20 5,3 C 4,8 C 66 % 1031,7 hPa 0,0 mm 0,8 km/h (0 Bft) O-SO 112 -0,5 C 3,1 km/h (1 Bft)
26.01.2016 22:25 5,3 C 4,8 C 66 % 1031,7 hPa 0,0 mm 1,0 km/h (0 Bft) SW 225 -0,5 C 3,1 km/h (1 Bft)
26.01.2016 22:30 5,4 C 5,0 C 66 % 1031,7 hPa 0,0 mm 0,8 km/h (0 Bft) S 180 -0,4 C 0,0 km/h (0 Bft)
26.01.2016 22:35 5,6 C 5,1 C 66 % 1031,7 hPa 0,0 mm 1,0 km/h (0 Bft) S 180 -0,2 C 3,6 km/h (1 Bft)
26.01.2016 22:40 5,6 C 5,2 C 66 % 1031,7 hPa 0,0 mm 1,0 km/h (0 Bft) SO 135 -0,2 C 0,0 km/h (0 Bft)
26.01.2016 22:45 5,6 C 5,2 C 65 % 1031,5 hPa 0,0 mm 0,8 km/h (0 Bft) S 180 -0,4 C 0,0 km/h (0 Bft)
26.01.2016 22:50 4,7 C 4,5 C 65 % 1031,5 hPa 0,0 mm 0,0 km/h (0 Bft) O 90 -1,3 C 0,0 km/h (0 Bft)
26.01.2016 22:55 3,8 C 3,8 C 66 % 1031,5 hPa 0,0 mm 0,0 km/h (0 Bft) O-NO 67 -2,0 C 0,0 km/h (0 Bft)
26.01.2016 23:00 3,2 C 3,1 C 68 % 1031,5 hPa 0,0 mm 0,0 km/h (0 Bft) NO 45 -2,1 C 0,0 km/h (0 Bft)
26.01.2016 23:05 3,0 C 2,8 C 68 % 1031,3 hPa 0,0 mm 0,0 km/h (0 Bft) O-NO 67 -2,3 C 0,0 km/h (0 Bft)
26.01.2016 23:10 2,6 C 2,4 C 69 % 1031,3 hPa 0,0 mm 0,0 km/h (0 Bft) O 90 -2,5 C 0,0 km/h (0 Bft)
26.01.2016 23:15 2,2 C 2,1 C 69 % 1031,3 hPa 0,0 mm 0,0 km/h (0 Bft) N-NW 337 -2,9 C 2,6 km/h (1 Bft)
26.01.2016 23:20 2,6 C 2,2 C 72 % 1031,3 hPa 0,0 mm 0,0 km/h (0 Bft) O-SO 112 -1,9 C 0,0 km/h (0 Bft)
26.01.2016 23:25 2,6 C 2,2 C 73 % 1031,4 hPa 0,0 mm 0,0 km/h (0 Bft) O-SO 112 -1,7 C 0,0 km/h (0 Bft)
26.01.2016 23:30 2,1 C 1,8 C 73 % 1031,4 hPa 0,0 mm 0,0 km/h (0 Bft) N-NO 22 -2,2 C 0,0 km/h (0 Bft)
26.01.2016 23:35 2,1 C 1,7 C 74 % 1031,4 hPa 0,0 mm 0,0 km/h (0 Bft) O-NO 67 -2,0 C 0,0 km/h (0 Bft)
26.01.2016 23:40 2,2 C 1,7 C 75 % 1031,4 hPa 0,0 mm 0,0 km/h (0 Bft) O-SO 112 -1,8 C 0,0 km/h (0 Bft)
26.01.2016 23:45 1,9 C 1,4 C 75 % 1031,2 hPa 0,0 mm 0,0 km/h (0 Bft) O-NO 67 -2,1 C 0,0 km/h (0 Bft)
26.01.2016 23:50 1,6 C 1,2 C 75 % 1031,2 hPa 0,0 mm 0,0 km/h (0 Bft) O-SO 112 -2,3 C 0,0 km/h (0 Bft)
26.01.2016 23:55 1,8 C 1,3 C 76 % 1031,2 hPa 0,0 mm 0,0 km/h (0 Bft) O 90 -2,0 C 0,0 km/h (0 Bft)
_ Min-Zeit 02:20 02:20 16:25 23:55 - 23:55 - - 23:15 23:55
Minimum _ 0,0 C -0,2 C 49 % 1031,2 hPa - 0,0 km/h (0 Bft) - - -2,9 C 0,0 km/h (0 Bft)
_ Max-Zeit 15:15 14:35 02:55 07:00 23:55 03:35 - - 14:15 03:35
Maximum _ 12,6 C 20,5 C 90 % 1034,0 hPa 0,0 mm 12,7 km/h
W-SW (3 Bft)
- - 3,4 C 25,6 km/h
W-SW (4 Bft)
Durchschnitt _ 4,9 C 5,6 C 71 % 1032,6 hPa #0,0 mm 1,8 km/h (1 Bft) W-SW - -0,3 C 2,5 km/h (1 Bft)